Watsonville, CA

11:48 AM PST on February 14, 2016 (GMT -0800)
Watsonville Municipal

Weather History for KWVI - November, 2012

Change the Weather History Date:

Friday, November 30, 2012

  Actual Average Record
Temperature  
Mean Temperature 59 °F 51 °F  
Max Temperature 62 °F 62 °F 71 °F (2008)
Min Temperature 56 °F 41 °F 29 °F (2004)
Degree Days  
Heating Degree Days 6    
Month to date heating degree days 253  
Since 1 July heating degree days 741  
Cooling Degree Days 0    
Month to date cooling degree days 11  
Year to date cooling degree days 79  
Growing Degree Days 9 (Base 50)    
Moisture  
Dew Point 57 °F    
Average Humidity 92    
Maximum Humidity 100    
Minimum Humidity 84    
Precipitation  
Precipitation 2.07 in - 2.07 in (2012)
Month to date precipitation 4.46  
Year to date precipitation 16.84  
Since 1 July precipitation 4.91  
Sea Level Pressure  
Sea Level Pressure 29.96 in    
Wind  
Wind Speed 7 mph (SSE)    
Max Wind Speed 22 mph    
Max Gust Speed 30 mph    
Visibility 6 miles    
Events Rain    
T = Trace of Precipitation, MM = Missing Value Source: NWS Daily Summary

Daily Weather History Graph

Daily Weather History Graph

Search for Another Location

Airport or City:

Trip Planner

Search our weather history database for the weather conditions in past years. The results will help you decide how hot, cold, wet, or windy it might be!

Date:

Astronomy

Nov. 30, 2012 Rise Set
Actual Time 7:01 AM PST 4:50 PM PST
Civil Twilight 6:32 AM PST 5:19 PM PST
Nautical Twilight 6:00 AM PST 5:51 PM PST
Astronomical Twilight 5:29 AM PST 6:22 PM PST
Moon 6:50 PM PST (11/30) 8:37 AM PST (11/30)
Length of Visible Light 10h 46m
Length of Day
9h 49m
Waning Gibbous, 96% of the Moon is Illuminated
Nov 30
Waning Gibbous
Dec 6
Last Quarter
Dec 13
New
Dec 19
First Quarter
Dec 28
Full

Hourly Weather History & Observations

Time (PST) Temp. Dew Point Humidity Pressure Visibility Wind Dir Wind Speed Gust Speed Precip Events Conditions
12:53 AM 60.1 °F 55.9 °F 86% 29.95 in 10.0 mi South 6.9 mph - 0.00 in   Overcast
1:53 AM 61.0 °F 55.0 °F 81% 29.93 in 10.0 mi SSE 17.3 mph 26.5 mph N/A   Overcast
2:53 AM 60.1 °F 57.9 °F 93% 29.94 in 10.0 mi South 8.1 mph - 0.04 in Rain Light Rain
3:53 AM 60.1 °F 59.0 °F 96% 29.92 in 9.0 mi South 8.1 mph - 0.02 in Rain Light Rain
4:53 AM 59.0 °F 59.0 °F 100% 29.90 in 8.0 mi Calm Calm - 0.03 in Rain Light Rain
5:30 AM 57.2 °F 57.2 °F 100% 29.90 in 2.5 mi SE 5.8 mph - 0.11 in Rain Heavy Rain
5:39 AM 57.2 °F 57.2 °F 100% 29.90 in 3.0 mi Calm Calm - 0.16 in Rain Heavy Rain
5:46 AM 57.2 °F 57.2 °F 100% 29.90 in 2.5 mi SSE 4.6 mph - 0.21 in Rain Heavy Rain
5:53 AM 57.9 °F 57.9 °F 100% 29.90 in 2.5 mi Calm Calm - 0.27 in Rain Heavy Rain
6:30 AM 57.2 °F 57.2 °F 100% 29.91 in 3.0 mi East 6.9 mph - 0.26 in Rain Heavy Rain
6:44 AM 57.2 °F 57.2 °F 100% 29.90 in 3.0 mi East 6.9 mph - 0.36 in Rain Heavy Rain
6:53 AM 57.9 °F 57.9 °F 100% 29.90 in 2.5 mi East 5.8 mph - 0.43 in Rain Heavy Rain
6:57 AM 57.2 °F 57.2 °F 100% 29.90 in 3.0 mi East 4.6 mph - 0.02 in Rain Heavy Rain
7:28 AM 57.2 °F 57.2 °F 100% 29.90 in 2.5 mi Variable 4.6 mph - 0.19 in Rain Heavy Rain
7:45 AM 57.2 °F 57.2 °F 100% 29.91 in 1.8 mi SE 10.4 mph - 0.33 in Rain Heavy Rain
7:48 AM 57.2 °F 57.2 °F 100% 29.91 in 2.0 mi SSE 5.8 mph - 0.34 in Rain Heavy Rain
7:53 AM 57.9 °F 57.9 °F 100% 29.91 in 3.0 mi SE 9.2 mph - 0.35 in Rain Rain
8:25 AM 57.2 °F 57.2 °F 100% 29.90 in 6.0 mi SE 10.4 mph 18.4 mph 0.06 in Rain Rain
8:34 AM 59.0 °F 59.0 °F 100% 29.90 in 7.0 mi SE 10.4 mph - 0.07 in Rain Light Rain
8:53 AM 59.0 °F 59.0 °F 100% 29.91 in 4.0 mi SSE 11.5 mph - 0.11 in Rain Rain
9:00 AM 59.0 °F 59.0 °F 100% 29.91 in 2.5 mi SSE 11.5 mph - 0.04 in Rain Rain
9:07 AM 59.0 °F 59.0 °F 100% 29.92 in 2.5 mi South 15.0 mph 20.7 mph 0.07 in Rain Heavy Rain
9:16 AM 60.8 °F 60.8 °F 100% 29.92 in 3.0 mi South 15.0 mph 24.2 mph 0.09 in Rain Rain
9:29 AM 59.0 °F 59.0 °F 100% 29.92 in 5.0 mi SSE 12.7 mph - 0.11 in Rain Rain
9:53 AM 59.0 °F 59.0 °F 100% 29.92 in 6.0 mi SSE 6.9 mph - 0.16 in Rain Rain
10:53 AM 59.0 °F 59.0 °F 100% 29.95 in 4.0 mi South 12.7 mph - 0.12 in Rain Rain
11:00 AM 59.0 °F 59.0 °F 100% 29.95 in 3.0 mi South 11.5 mph - 0.02 in Rain Rain
11:08 AM 59.0 °F 59.0 °F 100% 29.95 in 2.5 mi South 10.4 mph - 0.05 in Rain Rain
11:19 AM 57.2 °F 57.2 °F 100% 29.96 in 3.0 mi South 11.5 mph - 0.07 in Rain Rain
11:32 AM 57.2 °F 57.2 °F 100% 29.97 in 1.8 mi South 10.4 mph - 0.13 in Rain Heavy Rain
11:36 AM 57.2 °F 57.2 °F 100% 29.98 in 1.2 mi South 10.4 mph - 0.19 in Rain Heavy Rain
11:40 AM 57.2 °F 57.2 °F 100% 29.98 in 0.8 mi South 12.7 mph - 0.31 in Rain Heavy Rain
11:46 AM 57.2 °F 57.2 °F 100% 29.98 in 1.0 mi SSE 13.8 mph - 0.33 in Rain Heavy Rain
11:49 AM 57.2 °F 57.2 °F 100% 29.98 in 1.8 mi SSE 11.5 mph - 0.34 in Rain Rain
11:51 AM 57.2 °F 57.2 °F 100% 29.98 in 3.0 mi SSE 11.5 mph - 0.34 in Rain Rain
11:53 AM 57.0 °F 57.0 °F 100% 29.98 in 4.0 mi South 9.2 mph - 0.34 in Rain Rain
12:00 PM 57.2 °F 57.2 °F 100% 29.99 in 4.0 mi SSW 10.4 mph - 0.02 in Rain Rain
12:10 PM 57.2 °F 57.2 °F 100% 29.98 in 2.5 mi South 10.4 mph - 0.06 in Rain Heavy Rain
12:20 PM 57.2 °F 57.2 °F 100% 29.96 in 4.0 mi SSE 9.2 mph - 0.07 in Rain Light Rain
12:53 PM 57.9 °F 57.9 °F 100% 29.95 in 4.0 mi ESE 5.8 mph - 0.15 in Rain Rain
1:17 PM 57.2 °F 57.2 °F 100% 29.95 in 10.0 mi SE 6.9 mph - 0.03 in Rain Light Rain
1:35 PM 57.2 °F 57.2 °F 100% 29.95 in 10.0 mi Variable 6.9 mph - 0.03 in   Overcast
1:44 PM 57.2 °F 57.2 °F 100% 29.95 in 10.0 mi SE 4.6 mph - 0.03 in   Overcast
1:53 PM 59.0 °F 59.0 °F 100% 29.95 in 10.0 mi Calm Calm - 0.03 in   Overcast
2:07 PM 59.0 °F 59.0 °F 100% 29.95 in 10.0 mi Calm Calm - N/A   Overcast
2:15 PM 59.0 °F 59.0 °F 100% 29.94 in 10.0 mi South 3.5 mph - N/A   Overcast
2:53 PM 59.0 °F 57.9 °F 96% 29.94 in 10.0 mi South 9.2 mph - N/A   Overcast
3:53 PM 57.9 °F 57.9 °F 100% 29.97 in 10.0 mi SSW 13.8 mph 19.6 mph 0.00 in   Overcast
4:05 PM 57.2 °F 57.2 °F 100% 29.97 in 10.0 mi South 15.0 mph - N/A   Overcast
4:53 PM 57.9 °F 57.0 °F 97% 30.00 in 10.0 mi SSW 12.7 mph - 0.01 in   Overcast
5:53 PM 57.9 °F 57.0 °F 97% 30.03 in 10.0 mi South 12.7 mph - 0.00 in   Overcast
6:53 PM 57.9 °F 57.0 °F 97% 30.04 in 10.0 mi South 5.8 mph - N/A   Overcast
7:53 PM 57.9 °F 55.0 °F 90% 30.06 in 10.0 mi SE 5.8 mph - N/A   Overcast
8:53 PM 57.0 °F 55.0 °F 93% 30.06 in 10.0 mi Calm Calm - N/A   Overcast
9:20 PM 57.2 °F 55.4 °F 94% 30.06 in 10.0 mi Calm Calm - N/A   Overcast
9:53 PM 57.9 °F 55.0 °F 90% 30.07 in 10.0 mi SSW 6.9 mph - N/A   Overcast
10:12 PM 57.2 °F 55.4 °F 94% 30.07 in 4.0 mi South 10.4 mph - 0.01 in Rain Light Rain
10:20 PM 57.2 °F 55.4 °F 94% 30.07 in 8.0 mi South 8.1 mph - 0.01 in Rain Light Rain
10:53 PM 57.0 °F 55.0 °F 93% 30.07 in 10.0 mi Calm Calm - 0.01 in   Overcast
11:10 PM 57.2 °F 53.6 °F 88% 30.07 in 10.0 mi ESE 3.5 mph - N/A   Overcast
11:37 PM 57.2 °F 53.6 °F 88% 30.07 in 10.0 mi Calm Calm - N/A   Overcast
11:50 PM 57.2 °F 53.6 °F 88% 30.07 in 10.0 mi Calm Calm - N/A   Overcast
11:53 PM 57.0 °F 54.0 °F 89% 30.07 in 10.0 mi Calm Calm - N/A   Overcast